Location: ??????
(38.0677°N, 22.9870°E)
Time: 16:01:09
(UTC+00:00)

Cosmos 1674 Rocket - Pass Details

Date: 23 May 2024
Orbit: 598 x 627 km, 82.5° (Epoch: 24 June)

Event Time Altitude Azimuth Distance (km) Brightness Sun altitude
Exits shadow 01:15:35 26° 169° (S) 1,250 4.8 -18.9°
Maximum altitude 01:18:01 65° 94° (E) 694 3.9 -18.6°
Drops below altitude 10° 01:22:25 10° 14° (NNE) 2,006 7.1 -18.0°
Sets 01:24:40 0° 11° (N) 2,914 8.0 -17.7°
